TimeEST,TemperatureF,Dew PointF,Humidity,Sea Level PressureIn,VisibilityMPH,Wind Direction,Wind SpeedMPH,Gust SpeedMPH,PrecipitationIn,Events,Conditions,WindDirDegrees,DateUTC
12:16 AM,32.0,28.4,87,29.59,10.0,ESE,11.5,21.9,0.00,Rain,Light Freezing Rain,120,2013-02-27 05:16:00
12:37 AM,32.0,28.4,87,29.57,10.0,East,10.4,17.3,0.00,,Overcast,90,2013-02-27 05:37:00
12:54 AM,32.0,28.9,88,29.63,10.0,East,9.2,20.7,0.00,,Overcast,100,2013-02-27 05:54:00
1:54 AM,30.9,28.9,92,29.61,9.0,East,5.8,-,N/A,,Overcast,100,2013-02-27 06:54:00
2:54 AM,30.9,30.0,96,29.60,6.0,Variable,5.8,-,0.00,Rain,Light Freezing Rain,0,2013-02-27 07:54:00
3:54 AM,30.9,30.0,96,29.59,10.0,SE,3.5,-,0.00,,Overcast,140,2013-02-27 08:54:00
4:48 AM,30.2,30.2,100,29.53,1.2,SW,3.5,-,0.01,Snow,Light Snow,230,2013-02-27 09:48:00
4:54 AM,30.9,30.0,96,29.59,0.2,Calm,Calm,-,0.01,Fog-Snow,Light Snow,0,2013-02-27 09:54:00
5:15 AM,30.2,30.2,100,29.53,0.2,SW,3.5,-,0.00,Fog-Snow,Light Snow,230,2013-02-27 10:15:00
5:23 AM,30.2,30.2,100,29.53,0.5,SW,3.5,-,0.00,Fog-Snow,Light Snow,220,2013-02-27 10:23:00
5:33 AM,30.2,30.2,100,29.53,1.5,SW,4.6,-,0.00,Snow,Light Snow,230,2013-02-27 10:33:00
5:50 AM,30.2,28.4,93,29.53,2.5,SW,4.6,-,0.00,Snow,Light Snow,220,2013-02-27 10:50:00
5:54 AM,30.0,28.9,96,29.60,1.8,SSW,4.6,-,0.00,Snow,Light Snow,210,2013-02-27 10:54:00
6:07 AM,30.2,30.2,100,29.53,1.5,South,4.6,-,0.01,Snow,Light Snow,190,2013-02-27 11:07:00
6:15 AM,30.2,30.2,100,29.53,1.8,South,4.6,-,0.01,Snow,Light Snow,190,2013-02-27 11:15:00
6:20 AM,30.2,30.2,100,29.53,2.0,SSW,3.5,-,0.01,Snow,Light Snow,200,2013-02-27 11:20:00
6:33 AM,30.2,30.2,100,29.53,4.0,SSW,4.6,-,0.02,Snow,Light Snow,210,2013-02-27 11:33:00
6:49 AM,30.2,28.4,93,29.53,2.5,SW,4.6,-,0.02,Snow,Light Snow,220,2013-02-27 11:49:00
6:54 AM,30.9,28.9,92,29.59,1.8,SSW,5.8,-,0.02,Snow,Light Snow,210,2013-02-27 11:54:00
7:20 AM,30.2,30.2,100,29.53,0.8,SW,5.8,-,0.00,Snow,Light Snow,220,2013-02-27 12:20:00
7:28 AM,30.2,30.2,100,29.53,1.5,SW,5.8,-,0.00,Snow,Light Snow,220,2013-02-27 12:28:00
7:50 AM,30.2,30.2,100,29.54,2.5,SSW,6.9,-,0.00,Snow,Light Snow,200,2013-02-27 12:50:00
7:54 AM,30.9,30.9,100,29.60,2.5,SSW,6.9,-,0.00,Snow,Light Snow,200,2013-02-27 12:54:00
8:29 AM,32.0,30.2,93,29.55,1.5,WSW,9.2,-,0.01,Snow,Light Snow,240,2013-02-27 13:29:00
8:42 AM,32.0,30.2,93,29.55,2.5,WSW,9.2,-,0.01,Snow,Light Snow,240,2013-02-27 13:42:00
8:54 AM,32.0,30.9,96,29.62,2.0,WSW,5.8,-,0.01,Snow,Light Snow,240,2013-02-27 13:54:00
9:13 AM,33.8,32.0,93,29.56,3.0,WSW,6.9,-,0.00,,Overcast,250,2013-02-27 14:13:00
10:03 AM,33.8,32.0,93,29.56,6.0,WSW,12.7,20.7,0.00,Rain,Light Rain,250,2013-02-27 15:03:00
10:30 AM,33.8,33.8,100,29.56,1.8,West,8.1,-,0.01,Rain,Light Rain,260,2013-02-27 15:30:00
10:40 AM,33.8,33.8,100,29.56,0.8,West,12.7,-,0.01,Rain,Light Rain,260,2013-02-27 15:40:00
10:54 AM,34.0,33.1,96,29.62,7.0,West,12.7,-,0.01,Rain,Light Rain,260,2013-02-27 15:54:00
11:16 AM,33.8,33.8,100,29.58,10.0,West,17.3,21.9,0.01,Rain,Light Rain,260,2013-02-27 16:16:00
11:54 AM,35.1,33.1,92,29.63,10.0,West,9.2,18.4,0.01,Rain,Light Rain,270,2013-02-27 16:54:00
12:32 PM,35.6,30.2,81,29.57,10.0,WSW,13.8,25.3,0.00,,Overcast,240,2013-02-27 17:32:00
12:50 PM,35.6,28.4,75,29.57,10.0,WSW,13.8,25.3,0.00,,Overcast,250,2013-02-27 17:50:00
12:54 PM,35.1,28.9,78,29.63,10.0,West,12.7,25.3,0.00,,Overcast,260,2013-02-27 17:54:00
1:54 PM,35.1,30.0,82,29.63,10.0,West,13.8,19.6,N/A,,Overcast,260,2013-02-27 18:54:00
2:23 PM,35.6,30.2,81,29.58,10.0,WSW,8.1,-,N/A,,Overcast,250,2013-02-27 19:23:00
2:44 PM,35.6,30.2,81,29.58,10.0,West,11.5,-,N/A,,Overcast,270,2013-02-27 19:44:00
2:54 PM,36.0,30.0,79,29.64,10.0,West,12.7,-,N/A,,Overcast,260,2013-02-27 19:54:00
3:06 PM,35.6,30.2,81,29.58,10.0,WSW,5.8,-,N/A,,Overcast,250,2013-02-27 20:06:00
3:24 PM,33.8,30.2,87,29.59,2.5,West,10.4,-,0.01,Snow,Light Snow,260,2013-02-27 20:24:00
3:35 PM,33.8,32.0,93,29.59,3.0,WSW,8.1,-,0.02,Snow,Light Snow,250,2013-02-27 20:35:00
3:54 PM,33.1,32.0,96,29.65,10.0,WSW,10.4,-,0.02,,Overcast,240,2013-02-27 20:54:00
4:54 PM,34.0,32.0,92,29.65,8.0,WSW,9.2,-,0.00,,Overcast,250,2013-02-27 21:54:00
5:08 PM,33.8,32.0,93,29.60,10.0,West,8.1,-,N/A,,Overcast,260,2013-02-27 22:08:00
5:54 PM,34.0,32.0,92,29.67,10.0,SW,8.1,-,N/A,,Overcast,230,2013-02-27 22:54:00
5:56 PM,33.8,30.2,87,29.60,10.0,WSW,6.9,-,N/A,,Overcast,240,2013-02-27 22:56:00
6:03 PM,33.8,30.2,87,29.60,10.0,WSW,6.9,-,N/A,,Overcast,240,2013-02-27 23:03:00
6:54 PM,33.1,30.9,92,29.67,10.0,SW,5.8,-,N/A,,Overcast,230,2013-02-27 23:54:00
7:49 PM,33.8,30.2,87,29.61,5.0,WSW,9.2,-,0.00,Snow,Light Snow,240,2013-02-28 00:49:00
7:54 PM,33.1,30.9,92,29.68,4.0,WSW,10.4,-,0.00,Snow,Light Snow,250,2013-02-28 00:54:00
8:03 PM,33.8,30.2,87,29.61,2.5,WSW,17.3,25.3,0.00,Snow,Light Snow,250,2013-02-28 01:03:00
8:12 PM,33.8,30.2,87,29.61,3.0,WSW,11.5,25.3,0.00,Snow,Light Snow,250,2013-02-28 01:12:00
9:01 PM,32.0,30.2,93,29.61,6.0,WSW,11.5,-,0.00,Snow,Light Snow,250,2013-02-28 02:01:00
9:33 PM,32.0,30.2,93,29.60,6.0,WSW,8.1,-,0.00,Snow,Light Snow,240,2013-02-28 02:33:00
9:44 PM,32.0,30.2,93,29.60,2.0,WSW,9.2,-,0.00,Snow,Light Snow,250,2013-02-28 02:44:00
9:47 PM,32.0,30.2,93,29.60,3.0,WSW,8.1,-,0.00,Snow,Light Snow,240,2013-02-28 02:47:00
9:54 PM,32.0,30.0,92,29.65,5.0,WSW,6.9,-,0.00,Snow,Light Snow,250,2013-02-28 02:54:00
10:00 PM,32.0,30.2,93,29.59,2.5,WSW,6.9,-,0.00,Snow,Light Snow,250,2013-02-28 03:00:00
10:14 PM,30.2,30.2,100,29.59,3.0,West,6.9,-,0.00,Snow,Light Snow,260,2013-02-28 03:14:00
10:19 PM,30.2,30.2,100,29.59,2.0,West,5.8,-,0.01,Snow,Light Snow,260,2013-02-28 03:19:00
10:26 PM,30.2,30.2,100,29.59,0.8,WSW,6.9,-,0.01,Snow,Light Snow,250,2013-02-28 03:26:00
10:47 PM,30.2,30.2,100,29.58,0.2,WSW,5.8,-,0.02,Fog-Snow,Light Snow,250,2013-02-28 03:47:00
10:54 PM,30.9,30.0,96,29.64,0.2,WSW,10.4,-,0.02,Fog-Snow,Light Snow,240,2013-02-28 03:54:00
11:04 PM,30.2,30.2,100,29.59,0.5,WSW,11.5,-,0.00,Fog-Snow,Light Snow,240,2013-02-28 04:04:00
11:17 PM,30.2,30.2,100,29.58,2.0,West,8.1,-,0.00,Snow,Light Snow,270,2013-02-28 04:17:00
11:24 PM,30.2,30.2,100,29.58,4.0,West,10.4,-,0.00,Snow,Light Snow,270,2013-02-28 04:24:00
11:39 PM,30.2,28.4,93,29.58,6.0,West,10.4,-,0.00,Snow,Light Snow,280,2013-02-28 04:39:00
11:52 PM,28.4,28.4,100,29.58,1.8,West,19.6,25.3,0.00,Snow,Light Snow,280,2013-02-28 04:52:00
11:53 PM,28.9,27.0,92,29.64,1.5,West,20.7,27.6,0.00,Snow,Light Snow,280,2013-02-28 04:53:00